| time (UTC) | temp F | wind direction | speed knots | gust knots | rain 1hr in | rain 24hr in | rain mn in | humidity % | barometer mb |
| 20260504223021 | 78 | 202 | 1.7 | 6.1 | 0.00 | 0.00 | 0.00 | 71 | 1016.1 |
| 20260504222518 | 78 | 208 | 2.6 | 7.8 | 0.00 | 0.00 | 0.00 | 70 | 1016.2 |
| 20260504222015 | 77 | 210 | 1.7 | 4.3 | 0.00 | 0.00 | 0.00 | 71 | 1016.3 |
| 20260504221513 | 77 | 209 | 1.7 | 6.1 | 0.00 | 0.00 | 0.00 | 71 | 1016.5 |
| 20260504221009 | 78 | 238 | 6.1 | 7.8 | 0.00 | 0.00 | 0.00 | 70 | 1016.5 |
| 20260504220506 | 78 | 144 | 1.7 | 6.1 | 0.00 | 0.00 | 0.00 | 70 | 1016.5 |
| 20260504220003 | 79 | 140 | 1.7 | 4.3 | 0.00 | 0.00 | 0.00 | 69 | 1016.6 |
| 20260504215459 | 79 | 229 | 1.7 | 4.3 | 0.00 | 0.00 | 0.00 | 69 | 1016.6 |
| 20260504214956 | 79 | 168 | 2.6 | 9.6 | 0.00 | 0.00 | 0.00 | 69 | 1016.6 |
| 20260504214452 | 78 | 215 | 0.9 | 6.1 | 0.00 | 0.00 | 0.00 | 69 | 1016.5 |
| 20260504213949 | 78 | 215 | 1.7 | 6.1 | 0.00 | 0.00 | 0.00 | 70 | 1016.7 |
| 20260504213445 | 78 | 97 | 2.6 | 13.9 | 0.00 | 0.00 | 0.00 | 69 | 1017.0 |
| 20260504212943 | 79 | 201 | 0.9 | 4.3 | 0.00 | 0.00 | 0.00 | 67 | 1016.7 |
| 20260504212438 | 80 | 180 | 1.7 | 8.7 | 0.00 | 0.00 | 0.00 | 66 | 1016.9 |
| 20260504211936 | 79 | 142 | 9.6 | 13.9 | 0.00 | 0.00 | 0.00 | 67 | 1016.8 |
| 20260504211432 | 79 | 240 | 2.6 | 15.6 | 0.00 | 0.00 | 0.00 | 67 | 1016.8 |
| 20260504210930 | 81 | 242 | 0.0 | 6.1 | 0.00 | 0.00 | 0.00 | 66 | 1016.8 |
| 20260504210427 | 81 | 254 | 1.7 | 5.2 | 0.00 | 0.00 | 0.00 | 64 | 1017.1 |
| 20260504205924 | 82 | 239 | 1.7 | 4.3 | 0.00 | 0.00 | 0.00 | 63 | 1016.9 |
| 20260504205421 | 83 | 210 | 1.7 | 7.8 | 0.00 | 0.00 | 0.00 | 61 | 1017.2 |
| 20260504204919 | 81 | 192 | 3.5 | 11.3 | 0.00 | 0.00 | 0.00 | 64 | 1016.8 |
| 20260504204417 | 82 | 150 | 1.7 | 3.5 | 0.00 | 0.00 | 0.00 | 62 | 1017.2 |
| 20260504203917 | 82 | 262 | 2.6 | 8.7 | 0.00 | 0.00 | 0.00 | 62 | 1017.2 |
| 20260504203414 | 82 | 225 | 2.6 | 6.1 | 0.00 | 0.00 | 0.00 | 62 | 1017.3 |
| 20260504202909 | 82 | 260 | 0.0 | 3.5 | 0.00 | 0.00 | 0.00 | 61 | 1017.4 |
| 20260504202406 | 82 | 188 | 1.7 | 7.8 | 0.00 | 0.00 | 0.00 | 62 | 1017.4 |
| 20260504201903 | 82 | 107 | 2.6 | 5.2 | 0.00 | 0.00 | 0.00 | 61 | 1017.5 |
| 20260504201401 | 83 | 229 | 2.6 | 3.5 | 0.00 | 0.00 | 0.00 | 60 | 1017.5 |
| 20260504200857 | 82 | 192 | 2.6 | 6.1 | 0.00 | 0.00 | 0.00 | 61 | 1017.5 |
| 20260504200354 | 83 | 235 | 1.7 | 4.3 | 0.00 | 0.00 | 0.00 | 59 | 1017.6 |
| 20260504195851 | 82 | 253 | 1.7 | 6.1 | 0.00 | 0.00 | 0.00 | 61 | 1017.7 |
| 20260504195346 | 84 | 300 | 1.7 | 6.1 | 0.00 | 0.00 | 0.00 | 59 | 1017.7 |
| 20260504194843 | 84 | 48 | 1.7 | 3.5 | 0.00 | 0.00 | 0.00 | 59 | 1017.9 |
| 20260504194339 | 83 | 235 | 3.5 | 5.2 | 0.00 | 0.00 | 0.00 | 60 | 1017.8 |
| 20260504193835 | 82 | 251 | 2.6 | 10.4 | 0.00 | 0.00 | 0.00 | 61 | 1017.7 |
| 20260504193333 | 81 | 231 | 2.6 | 6.1 | 0.00 | 0.00 | 0.00 | 62 | 1018.2 |
| 20260504192831 | 84 | 169 | 2.6 | 7.0 | 0.00 | 0.00 | 0.00 | 59 | 1018.1 |
| 20260504192329 | 82 | 219 | 0.0 | 7.0 | 0.00 | 0.00 | 0.00 | 59 | 1018.2 |
| 20260504191827 | 84 | 260 | 3.5 | 4.3 | 0.00 | 0.00 | 0.00 | 56 | 1018.2 |
| 20260504191324 | 83 | 222 | 2.6 | 7.0 | 0.00 | 0.00 | 0.00 | 58 | 1018.3 |
| 20260504190820 | 83 | 350 | 1.7 | 11.3 | 0.00 | 0.00 | 0.00 | 59 | 1018.2 |
| 20260504190316 | 83 | 112 | 1.7 | 9.6 | 0.00 | 0.00 | 0.00 | 60 | 1018.4 |
| 20260504185813 | 81 | 108 | 2.6 | 4.3 | 0.00 | 0.00 | 0.00 | 62 | 1018.4 |
| 20260504185310 | 81 | 212 | 0.9 | 7.0 | 0.00 | 0.00 | 0.00 | 61 | 1018.6 |
| 20260504184806 | 82 | 92 | 0.9 | 7.0 | 0.00 | 0.00 | 0.00 | 62 | 1018.2 |
| 20260504184302 | 83 | 233 | 1.7 | 4.3 | 0.00 | 0.00 | 0.00 | 59 | 1018.5 |
| 20260504183757 | 82 | 226 | 0.9 | 4.3 | 0.00 | 0.00 | 0.00 | 60 | 1018.3 |
| 20260504183254 | 82 | 209 | 0.9 | 7.8 | 0.00 | 0.00 | 0.00 | 61 | 1018.3 |
| 20260504182753 | 83 | 161 | 0.9 | 6.1 | 0.00 | 0.00 | 0.00 | 61 | 1018.7 |
| 20260504182250 | 82 | 206 | 1.7 | 6.1 | 0.00 | 0.00 | 0.00 | 59 | 1018.8 |
| 20260504181747 | 82 | 171 | 2.6 | 9.6 | 0.00 | 0.00 | 0.00 | 61 | 1018.7 |
| 20260504181244 | 82 | 273 | 1.7 | 5.2 | 0.00 | 0.00 | 0.00 | 60 | 1018.8 |
| 20260504180743 | 81 | 310 | 0.0 | 5.2 | 0.00 | 0.00 | 0.00 | 61 | 1018.8 |
| 20260504180242 | 81 | 220 | 5.2 | 11.3 | 0.00 | 0.00 | 0.00 | 60 | 1018.9 |
| 20260504175739 | 79 | 226 | 0.0 | 7.8 | 0.00 | 0.00 | 0.00 | 63 | 1019.0 |
| 20260504175235 | 80 | 158 | 4.3 | 8.7 | 0.00 | 0.00 | 0.00 | 62 | 1019.1 |
| 20260504174733 | 81 | 170 | 4.3 | 9.6 | 0.00 | 0.00 | 0.00 | 61 | 1018.8 |
| 20260504174231 | 80 | 168 | 4.3 | 5.2 | 0.00 | 0.00 | 0.00 | 60 | 1019.0 |
| 20260504173727 | 82 | 144 | 3.5 | 6.1 | 0.00 | 0.00 | 0.00 | 59 | 1019.2 |
| 20260504173224 | 81 | 231 | 5.2 | 13.0 | 0.00 | 0.00 | 0.00 | 59 | 1019.4 |
| 20260504172721 | 83 | 104 | 0.9 | 4.3 | 0.00 | 0.00 | 0.00 | 58 | 1019.5 |
| 20260504172217 | 82 | 200 | 2.6 | 6.1 | 0.00 | 0.00 | 0.00 | 60 | 1019.2 |
| 20260504171714 | 81 | 261 | 2.6 | 4.3 | 0.00 | 0.00 | 0.00 | 62 | 1019.6 |
| 20260504171211 | 81 | 207 | 3.5 | 16.5 | 0.00 | 0.00 | 0.00 | 60 | 1019.5 |
| 20260504170708 | 81 | 239 | 1.7 | 7.8 | 0.00 | 0.00 | 0.00 | 61 | 1019.6 |
| 20260504170206 | 81 | 227 | 4.3 | 6.1 | 0.00 | 0.00 | 0.00 | 59 | 1019.6 |
| 20260504160124 | 80 | 150 | 1.7 | 7.8 | 0.00 | 0.00 | 0.00 | 60 | 1020.1 |
| 20260504151051 | 77 | 244 | 0.9 | 7.8 | 0.00 | 0.00 | 0.00 | 67 | 1020.2 |
| 20260504150548 | 77 | 204 | 0.9 | 7.8 | 0.00 | 0.00 | 0.00 | 68 | 1020.3 |
| 20260504141014 | 75 | 215 | 2.6 | 8.7 | 0.00 | 0.00 | 0.00 | 70 | 1020.2 |
| 20260504140511 | 74 | 211 | 2.6 | 3.5 | 0.00 | 0.00 | 0.00 | 71 | 1020.0 |
| 20260504130435 | 69 | 155 | 0.9 | 1.7 | 0.00 | 0.00 | 0.00 | 76 | 1020.2 |
| 20260504110322 | 58 | 133 | 0.0 | 1.7 | 0.00 | 0.00 | 0.00 | 95 | 1019.8 |
| 20260504100240 | 59 | 119 | 0.9 | 2.6 | 0.00 | 0.00 | 0.00 | 92 | 1019.9 |
| 20260504081633 | 62 | 132 | 0.0 | 0.9 | 0.00 | 0.00 | 0.00 | 79 | 1020.8 |
| 20260504081129 | 63 | 114 | 0.9 | 2.6 | 0.00 | 0.00 | 0.00 | 78 | 1020.7 |
| 20260504080626 | 63 | 127 | 0.9 | 1.7 | 0.00 | 0.00 | 0.00 | 77 | 1021.0 |
| 20260504080122 | 64 | 112 | 0.0 | 1.7 | 0.00 | 0.00 | 0.00 | 76 | 1021.0 |
| 20260504050439 | 62 | 109 | 0.9 | 1.7 | 0.00 | 0.00 | 0.00 | 80 | 1022.5 |
| 20260504045936 | 61 | 111 | 0.9 | 1.7 | 0.00 | 0.00 | 0.00 | 80 | 1022.6 |
| 20260504045432 | 62 | 141 | 0.9 | 1.7 | 0.00 | 0.00 | 0.00 | 80 | 1022.9 |
| 20260504044928 | 62 | 240 | 0.0 | 0.9 | 0.00 | 0.00 | 0.00 | 80 | 1022.8 |
| 20260504044426 | 62 | 142 | 0.0 | 0.9 | 0.00 | 0.00 | 0.00 | 79 | 1022.7 |
| 20260504043923 | 63 | 119 | 0.0 | 0.9 | 0.00 | 0.00 | 0.00 | 78 | 1022.7 |
| 20260504043420 | 62 | 124 | 0.0 | 0.9 | 0.00 | 0.00 | 0.00 | 78 | 1022.8 |
| 20260504042917 | 63 | 129 | 0.0 | 1.7 | 0.00 | 0.00 | 0.00 | 76 | 1023.0 |
| 20260504042414 | 63 | 119 | 0.0 | 0.9 | 0.00 | 0.00 | 0.00 | 75 | 1023.1 |
| 20260504041910 | 63 | 113 | 0.0 | 1.7 | 0.00 | 0.00 | 0.00 | 75 | 1022.7 |
| 20260504041406 | 63 | 129 | 0.0 | 1.7 | 0.00 | 0.00 | 0.00 | 74 | 1022.6 |
| 20260504040902 | 64 | 120 | 0.0 | 0.9 | 0.00 | 0.00 | 0.00 | 73 | 1022.6 |
| 20260504040400 | 64 | 139 | 0.0 | 1.7 | 0.00 | 0.00 | 0.00 | 72 | 1022.7 |
| 20260504035856 | 64 | 139 | 0.9 | 1.7 | 0.00 | 0.00 | 0.00 | 72 | 1022.6 |
| 20260504035354 | 64 | 157 | 0.9 | 1.7 | 0.00 | 0.00 | 0.00 | 72 | 1022.8 |
| 20260504034850 | 65 | 133 | 0.9 | 1.7 | 0.00 | 0.00 | 0.00 | 70 | 1022.7 |
| 20260504034348 | 65 | 127 | 0.0 | 1.7 | 0.00 | 0.00 | 0.00 | 70 | 1023.0 |
| 20260504033844 | 65 | 144 | 0.0 | 1.7 | 0.00 | 0.00 | 0.00 | 70 | 1022.9 |
| 20260504033343 | 66 | 142 | 0.0 | 1.7 | 0.00 | 0.00 | 0.00 | 68 | 1022.8 |
| 20260504032839 | 66 | 129 | 0.0 | 1.7 | 0.00 | 0.00 | 0.00 | 68 | 1022.8 |
| 20260504032336 | 66 | 135 | 0.0 | 1.7 | 0.00 | 0.00 | 0.00 | 66 | 1022.7 |
| 20260504031833 | 66 | 165 | 0.9 | 1.7 | 0.00 | 0.00 | 0.00 | 67 | 1022.8 |
| 20260504031330 | 67 | 129 | 0.0 | 1.7 | 0.00 | 0.00 | 0.00 | 65 | 1022.7 |
| 20260504030826 | 67 | 135 | 0.0 | 3.5 | 0.00 | 0.00 | 0.00 | 65 | 1022.7 |
| 20260504030324 | 67 | 164 | 1.7 | 3.5 | 0.00 | 0.00 | 0.00 | 65 | 1022.7 |
| 20260504025820 | 67 | 134 | 0.9 | 2.6 | 0.00 | 0.00 | 0.00 | 65 | 1022.8 |
| 20260504025317 | 67 | 128 | 1.7 | 3.5 | 0.00 | 0.00 | 0.00 | 64 | 1022.6 |
| 20260504024813 | 67 | 130 | 1.7 | 3.5 | 0.00 | 0.00 | 0.00 | 64 | 1022.8 |
| 20260504024310 | 68 | 153 | 0.0 | 3.5 | 0.00 | 0.00 | 0.00 | 63 | 1022.9 |
| 20260504023807 | 68 | 141 | 0.0 | 4.3 | 0.00 | 0.00 | 0.00 | 63 | 1022.9 |
| 20260504023303 | 68 | 124 | 0.0 | 3.5 | 0.00 | 0.00 | 0.00 | 63 | 1022.8 |
| 20260504022759 | 68 | 177 | 0.0 | 2.6 | 0.00 | 0.00 | 0.00 | 62 | 1022.8 |
| 20260504022256 | 69 | 153 | 0.9 | 4.3 | 0.00 | 0.00 | 0.00 | 62 | 1022.7 |
| 20260504021752 | 68 | 118 | 0.0 | 3.5 | 0.00 | 0.00 | 0.00 | 63 | 1022.6 |
| 20260504021250 | 68 | 116 | 1.7 | 2.6 | 0.00 | 0.00 | 0.00 | 62 | 1022.8 |
| 20260504020747 | 69 | 172 | 0.0 | 4.3 | 0.00 | 0.00 | 0.00 | 61 | 1022.7 |
| 20260504020243 | 69 | 209 | 0.9 | 3.5 | 0.00 | 0.00 | 0.00 | 61 | 1022.6 |
| 20260504015739 | 69 | 185 | 0.0 | 1.7 | 0.00 | 0.00 | 0.00 | 60 | 1022.7 |
| 20260504015236 | 69 | 226 | 0.9 | 2.6 | 0.00 | 0.00 | 0.00 | 60 | 1022.8 |
| 20260504014732 | 70 | 273 | 0.0 | 2.6 | 0.00 | 0.00 | 0.00 | 59 | 1022.5 |
| 20260504014228 | 70 | 159 | 0.9 | 2.6 | 0.00 | 0.00 | 0.00 | 59 | 1022.8 |
| 20260504013726 | 70 | 180 | 0.0 | 5.2 | 0.00 | 0.00 | 0.00 | 58 | 1022.7 |
| 20260504013224 | 70 | 186 | 0.0 | 2.6 | 0.00 | 0.00 | 0.00 | 57 | 1022.6 |
| 20260504012720 | 70 | 162 | 1.7 | 4.3 | 0.00 | 0.00 | 0.00 | 58 | 1022.7 |
| 20260504012218 | 71 | 180 | 0.0 | 2.6 | 0.00 | 0.00 | 0.00 | 58 | 1022.4 |
| 20260504011715 | 71 | 136 | 2.6 | 6.1 | 0.00 | 0.00 | 0.00 | 56 | 1022.5 |
| 20260504011212 | 71 | 245 | 2.6 | 4.3 | 0.00 | 0.00 | 0.00 | 55 | 1022.4 |
| 20260504010708 | 71 | 149 | 2.6 | 5.2 | 0.00 | 0.00 | 0.00 | 55 | 1022.4 |
| 20260504010203 | 71 | 170 | 1.7 | 4.3 | 0.00 | 0.00 | 0.00 | 55 | 1022.5 |
| 20260504005700 | 71 | 125 | 1.7 | 3.5 | 0.00 | 0.00 | 0.00 | 54 | 1022.5 |
| 20260504005157 | 72 | 219 | 0.9 | 2.6 | 0.00 | 0.00 | 0.00 | 53 | 1022.3 |
| 20260504004655 | 72 | 197 | 0.9 | 7.0 | 0.00 | 0.00 | 0.00 | 53 | 1022.2 |
| 20260504004152 | 72 | 189 | 1.7 | 8.7 | 0.00 | 0.00 | 0.00 | 53 | 1022.3 |
| 20260504003648 | 72 | 132 | 4.3 | 6.1 | 0.00 | 0.00 | 0.00 | 52 | 1022.5 |
| 20260504003145 | 73 | 192 | 0.9 | 3.5 | 0.00 | 0.00 | 0.00 | 51 | 1022.4 |
| 20260504002642 | 73 | 154 | 1.7 | 4.3 | 0.00 | 0.00 | 0.00 | 51 | 1022.3 |
| 20260504002139 | 74 | 247 | 0.9 | 3.5 | 0.00 | 0.00 | 0.00 | 49 | 1022.4 |
| 20260504001637 | 74 | 242 | 2.6 | 4.3 | 0.00 | 0.00 | 0.00 | 48 | 1022.4 |
| 20260504001133 | 75 | 144 | 0.9 | 3.5 | 0.00 | 0.00 | 0.00 | 48 | 1022.4 |
| 20260504000630 | 75 | 198 | 1.7 | 6.1 | 0.00 | 0.00 | 0.00 | 47 | 1022.5 |
| 20260504000127 | 75 | 162 | 2.6 | 6.1 | 0.00 | 0.00 | 0.00 | 47 | 1022.5 |
| 20260503235626 | 76 | 272 | 0.9 | 5.2 | 0.00 | 0.00 | 0.00 | 46 | 1022.5 |
| 20260503235122 | 76 | 159 | 1.7 | 6.1 | 0.00 | 0.00 | 0.00 | 47 | 1022.5 |
| 20260503234620 | 75 | 151 | 1.7 | 7.8 | 0.00 | 0.00 | 0.00 | 46 | 1022.6 |
| 20260503234118 | 76 | 177 | 1.7 | 6.1 | 0.00 | 0.00 | 0.00 | 47 | 1022.6 |
| 20260503233615 | 76 | 186 | 1.7 | 10.4 | 0.00 | 0.00 | 0.00 | 45 | 1022.8 |
| 20260503233110 | 77 | 194 | 1.7 | 8.7 | 0.00 | 0.00 | 0.00 | 45 | 1023.0 |
| 20260503232607 | 77 | 213 | 1.7 | 4.3 | 0.00 | 0.00 | 0.00 | 46 | 1022.6 |
| 20260503232105 | 77 | 128 | 3.5 | 9.6 | 0.00 | 0.00 | 0.00 | 44 | 1022.7 |
| 20260503231603 | 77 | 136 | 2.6 | 7.0 | 0.00 | 0.00 | 0.00 | 45 | 1022.7 |
| 20260503231059 | 77 | 209 | 1.7 | 8.7 | 0.00 | 0.00 | 0.00 | 44 | 1022.9 |
| 20260503230555 | 78 | 152 | 3.5 | 7.0 | 0.00 | 0.00 | 0.00 | 44 | 1023.1 |
| 20260503230053 | 78 | 183 | 3.5 | 7.8 | 0.00 | 0.00 | 0.00 | 45 | 1022.7 |
| 20260503225550 | 78 | 185 | 2.6 | 12.2 | 0.00 | 0.00 | 0.00 | 45 | 1022.9 |
| 20260503225045 | 78 | 146 | 5.2 | 8.7 | 0.00 | 0.00 | 0.00 | 42 | 1022.8 |
| 20260503224543 | 78 | 142 | 2.6 | 6.1 | 0.00 | 0.00 | 0.00 | 43 | 1022.8 |
| 20260503224040 | 77 | 216 | 1.7 | 3.5 | 0.00 | 0.00 | 0.00 | 44 | 1022.8 |
| 20260503223538 | 78 | 114 | 3.5 | 5.2 | 0.00 | 0.00 | 0.00 | 42 | 1023.0 |